Date,TemperatureHighF,TemperatureAvgF,TemperatureLowF,DewpointHighF,DewpointAvgF,DewpointLowF,HumidityHigh,HumidityAvg,HumidityLow,PressureMaxIn,PressureMinIn,WindSpeedMaxMPH,WindSpeedAvgMPH,GustSpeedMaxMPH,PrecipitationSumIn
2013-4-1,57,44,34,44,24,4,82,50,22,31.98,31.78,8,1,13,0.00
2013-4-2,52,38,30,10,4,-3,30,24,19,32.13,31.98,6,1,11,0.00
2013-4-3,54,36,22,12,4,-4,45,26,18,32.34,32.13,7,1,13,0.00
2013-4-4,57,36,17,12,4,-6,45,28,17,32.34,31.98,7,1,12,0.00
2013-4-5,68,49,34,25,16,5,57,30,15,32.04,31.81,7,1,13,0.00
2013-4-6,67,45,26,18,8,-1,41,23,15,32.28,32.04,6,1,10,0.00
2013-4-7,79,57,36,28,20,8,40,24,15,32.19,31.98,5,0,12,0.00
2013-4-8,87,65,46,33,27,22,49,26,13,32.10,31.98,6,0,9,0.00
2013-4-9,95,72,55,37,32,25,45,24,11,32.16,32.01,7,0,11,0.00
2013-4-10,96,72,52,45,35,29,56,30,11,32.04,31.90,7,0,11,0.00
2013-4-11,89,71,53,44,36,31,51,30,15,32.01,31.81,7,1,11,0.00
2013-4-12,80,61,51,60,42,21,83,52,22,31.87,31.66,8,1,15,1.38
2013-4-13,74,57,46,26,19,10,38,24,16,32.01,31.87,7,1,9,0.00
2013-4-14,76,54,35,27,20,11,49,29,15,32.16,32.01,6,0,10,0.00
2013-4-15,71,59,52,38,32,27,50,36,23,32.28,32.13,7,2,13,0.00
2013-4-16,86,67,54,52,40,36,66,41,19,32.28,32.16,8,2,13,0.00
2013-4-17,76,64,56,66,50,42,93,64,32,32.28,32.19,6,0,9,0.00
2013-4-18,82,67,60,53,46,39,68,48,25,32.28,32.04,8,1,13,0.00
2013-4-19,77,63,50,57,44,21,80,52,31,32.01,31.69,8,1,13,0.86
2013-4-20,64,50,38,24,15,8,36,25,16,32.37,31.87,7,1,13,0.00
2013-4-21,64,44,30,20,14,9,52,31,17,32.57,32.40,6,0,9,0.00
2013-4-22,68,45,29,26,18,13,63,37,17,32.54,32.37,7,1,11,0.00
2013-4-23,71,49,32,32,24,15,67,39,22,32.40,32.10,5,1,8,0.00
2013-4-24,84,57,36,47,33,22,72,44,17,32.13,31.81,10,1,13,0.00
2013-4-25,74,54,41,26,19,11,42,27,16,32.34,32.10,6,1,11,0.00
2013-4-26,75,52,36,26,20,10,51,31,16,32.46,32.34,5,0,8,0.00
2013-4-27,80,54,34,32,24,18,66,35,15,32.46,32.31,6,1,10,0.00
2013-4-28,58,50,40,44,35,23,71,56,35,32.31,32.13,6,1,10,0.00
2013-4-29,63,56,51,50,46,42,77,69,55,32.13,32.04,5,0,8,0.00
2013-4-30,64,57,54,54,48,45,81,72,62,32.34,32.10,5,0,8,0.00